Find STARLINK-37479

NORAD ID: 68861 Int'l Des: 2026-094Y Owner: starlink Country: USA Constellation: starlink operational
LEOCIRCULARRETROGRADE

Live-Position

3D-Globus wird geladen...

Über STARLINK-37479

Beschreibung wird geladen...

Nächste Überflüge

Passes for default location (London). Set your location on the main map for personalized predictions.

Höhenverlauf

Loading altitude history...

Zweizeiliger Elementsatz

1 68861U 26094Y 26120.66670139 -.01691743 95394-3 -21373-2 0 9993
2 68861 97.2831 134.1671 0001268 81.3237 145.8506 16.07651779 1723
Epoch: 30. Apr. 2026 • Age: 32 hours

Aktueller Status

Höhe 280.6 km
Geschwindigkeit 7.74 km/s
Subsatellitenpunkt -42.20°S, 74.51°W
Typ internet

Most Searched